TimeEST,TemperatureF,Dew PointF,Humidity,Sea Level PressureIn,VisibilityMPH,Wind Direction,Wind SpeedMPH,Gust SpeedMPH,PrecipitationIn,Events,Conditions,WindDirDegrees,DateUTC
12:04 AM,21.2,17.6,86,29.89,3.0,NW,6.9,-,0.00,Snow,Light Snow,310,2013-03-03 05:04:00
12:13 AM,21.2,17.6,86,29.89,2.5,NW,5.8,-,0.00,Snow,Light Snow,310,2013-03-03 05:13:00
12:21 AM,21.2,17.6,86,29.89,3.0,WNW,8.1,-,0.00,Snow,Light Snow,300,2013-03-03 05:21:00
12:28 AM,21.2,17.6,86,29.89,2.5,NW,10.4,-,0.00,Snow,Light Snow,310,2013-03-03 05:28:00
12:51 AM,21.0,17.1,85,30.01,3.0,WNW,9.2,-,0.00,Snow,Light Snow,300,2013-03-03 05:51:00
1:01 AM,21.2,17.6,86,29.89,2.5,WNW,8.1,-,0.00,Snow,Light Snow,300,2013-03-03 06:01:00
1:19 AM,19.4,15.8,86,29.89,3.0,WNW,9.2,-,0.00,Snow,Light Snow,300,2013-03-03 06:19:00
1:51 AM,19.9,16.0,85,30.02,3.0,WNW,8.1,-,0.00,Snow,Light Snow,300,2013-03-03 06:51:00
2:10 AM,19.4,15.8,86,29.89,2.5,NW,9.2,-,0.00,Snow,Light Snow,310,2013-03-03 07:10:00
2:39 AM,19.4,15.8,86,29.89,3.0,WNW,8.1,-,0.00,Snow,Light Snow,300,2013-03-03 07:39:00
2:51 AM,19.9,16.0,85,30.01,2.5,WNW,6.9,-,0.00,Snow,Light Snow,300,2013-03-03 07:51:00
2:58 AM,19.4,15.8,86,29.88,2.0,NW,6.9,-,0.00,Snow,Light Snow,310,2013-03-03 07:58:00
3:02 AM,19.4,15.8,86,29.88,3.0,NW,6.9,-,0.00,Snow,Light Snow,310,2013-03-03 08:02:00
3:13 AM,19.4,15.8,86,29.88,2.5,WNW,6.9,-,0.00,Snow,Light Snow,300,2013-03-03 08:13:00
3:21 AM,19.4,15.8,86,29.88,1.8,NW,9.2,-,0.00,Snow,Light Snow,310,2013-03-03 08:21:00
3:27 AM,19.4,15.8,86,29.88,2.0,NW,8.1,-,0.00,Snow,Light Snow,310,2013-03-03 08:27:00
3:36 AM,19.4,15.8,86,29.88,3.0,NW,8.1,-,0.00,Snow,Light Snow,310,2013-03-03 08:36:00
3:46 AM,19.4,15.8,86,29.88,5.0,NW,6.9,-,0.00,Snow,Light Snow,310,2013-03-03 08:46:00
3:51 AM,19.9,16.0,85,30.01,6.0,WNW,9.2,-,0.00,Snow,Light Snow,300,2013-03-03 08:51:00
4:51 AM,19.9,15.1,81,30.01,3.0,WNW,9.2,-,0.00,Snow,Light Snow,300,2013-03-03 09:51:00
5:07 AM,19.4,15.8,86,29.88,3.0,WNW,8.1,-,0.00,Snow,Light Snow,300,2013-03-03 10:07:00
5:14 AM,19.4,15.8,86,29.88,2.5,NW,8.1,-,N/A,Snow,Light Snow,310,2013-03-03 10:14:00
5:25 AM,19.4,15.8,86,29.88,3.0,NW,5.8,-,0.00,Snow,Light Snow,320,2013-03-03 10:25:00
5:35 AM,19.4,15.8,86,29.88,4.0,NW,8.1,-,0.00,Snow,Light Snow,310,2013-03-03 10:35:00
5:51 AM,19.0,14.0,81,30.01,8.0,NW,8.1,-,0.00,,Overcast,310,2013-03-03 10:51:00
6:51 AM,19.0,14.0,81,30.01,10.0,NW,9.2,-,0.00,,Overcast,320,2013-03-03 11:51:00
7:15 AM,19.4,14.0,80,29.89,1.8,NW,8.1,-,0.00,Snow,Light Snow,310,2013-03-03 12:15:00
7:24 AM,19.4,15.8,86,29.89,2.0,NW,12.7,-,0.00,Snow,Light Snow,310,2013-03-03 12:24:00
7:33 AM,19.4,15.8,86,29.90,1.8,NNW,9.2,-,N/A,Snow,Light Snow,330,2013-03-03 12:33:00
7:51 AM,19.0,15.1,85,30.03,2.0,NW,10.4,-,0.01,Snow,Light Snow,310,2013-03-03 12:51:00
8:04 AM,19.4,15.8,86,29.90,1.5,NW,6.9,-,0.00,Snow,Light Snow,310,2013-03-03 13:04:00
8:30 AM,19.4,15.8,86,29.91,2.0,NNW,8.1,-,0.00,Snow,Light Snow,330,2013-03-03 13:30:00
8:51 AM,19.9,16.0,85,30.04,2.5,NNW,4.6,-,0.00,Snow,Light Snow,340,2013-03-03 13:51:00
9:10 AM,19.4,15.8,86,29.91,3.0,NNW,5.8,-,0.00,Snow,Light Snow,340,2013-03-03 14:10:00
9:51 AM,19.9,15.1,81,30.03,4.0,NW,10.4,-,0.00,Snow,Light Snow,320,2013-03-03 14:51:00
10:10 AM,19.4,15.8,86,29.90,1.5,NW,10.4,-,0.00,Snow,Light Snow,320,2013-03-03 15:10:00
10:28 AM,19.4,15.8,86,29.90,3.0,NW,11.5,-,0.00,Snow,Light Snow,310,2013-03-03 15:28:00
10:51 AM,19.9,14.0,78,30.04,2.5,NW,9.2,-,0.01,Snow,Light Snow,320,2013-03-03 15:51:00
11:02 AM,19.4,14.0,80,29.90,5.0,NW,9.2,-,0.00,Snow,Light Snow,310,2013-03-03 16:02:00
11:26 AM,21.2,14.0,74,29.90,3.0,NW,10.4,-,0.00,Snow,Light Snow,310,2013-03-03 16:26:00
11:51 AM,21.0,15.1,78,30.04,2.5,NW,11.5,-,0.00,Snow,Light Snow,310,2013-03-03 16:51:00
12:00 PM,21.2,15.8,80,29.91,6.0,NW,11.5,-,0.00,Snow,Light Snow,320,2013-03-03 17:00:00
12:51 PM,21.0,14.0,74,30.02,7.0,NNW,13.8,18.4,0.00,Snow,Light Snow,330,2013-03-03 17:51:00
1:22 PM,21.2,15.8,80,29.88,2.5,NW,10.4,-,0.00,Snow,Light Snow,320,2013-03-03 18:22:00
1:40 PM,21.2,15.8,80,29.88,5.0,NW,10.4,-,0.00,Snow,Light Snow,320,2013-03-03 18:40:00
1:51 PM,21.9,15.1,75,30.01,5.0,NNW,11.5,-,0.00,Snow,Light Snow,330,2013-03-03 18:51:00
2:25 PM,21.2,15.8,80,29.88,2.0,NNW,10.4,-,0.00,Snow,Light Snow,330,2013-03-03 19:25:00
2:37 PM,23.0,15.8,74,29.87,4.0,NW,10.4,-,0.00,Snow,Light Snow,320,2013-03-03 19:37:00
2:51 PM,21.9,15.1,75,30.01,4.0,NNW,11.5,-,0.00,Snow,Light Snow,330,2013-03-03 19:51:00
3:08 PM,21.2,15.8,80,29.88,1.8,NW,9.2,-,0.00,Snow,Light Snow,320,2013-03-03 20:08:00
3:24 PM,23.0,17.6,80,29.88,2.0,NW,9.2,-,0.00,Snow,Light Snow,320,2013-03-03 20:24:00
3:39 PM,24.8,17.6,74,29.88,3.0,NW,11.5,-,N/A,Snow,Light Snow,320,2013-03-03 20:39:00
3:51 PM,23.0,16.0,74,30.01,3.0,NW,12.7,-,0.00,Snow,Light Snow,320,2013-03-03 20:51:00
4:08 PM,24.8,15.8,69,29.88,7.0,WNW,13.8,20.7,0.00,Snow,Light Snow,290,2013-03-03 21:08:00
4:33 PM,23.0,15.8,74,29.89,3.0,NNW,12.7,-,0.00,Snow,Light Snow,330,2013-03-03 21:33:00
4:51 PM,23.0,15.8,74,29.89,2.5,NNW,10.4,18.4,N/A,Snow,Light Snow,330,2013-03-03 21:51:00
5:02 PM,21.2,17.6,86,29.89,1.5,NW,10.4,-,0.00,Snow,Light Snow,320,2013-03-03 22:02:00
5:12 PM,23.0,17.6,80,29.89,3.0,NW,8.1,-,0.00,Snow,Light Snow,320,2013-03-03 22:12:00
5:22 PM,23.0,15.8,74,29.89,4.0,NW,9.2,17.3,0.00,Snow,Light Snow,310,2013-03-03 22:22:00
5:31 PM,23.0,17.6,80,29.90,2.0,WNW,10.4,-,0.00,Snow,Light Snow,300,2013-03-03 22:31:00
5:45 PM,21.2,17.6,86,29.90,1.5,NW,9.2,-,0.00,Snow,Light Snow,320,2013-03-03 22:45:00
5:51 PM,21.9,18.0,85,30.04,1.0,NNW,9.2,-,0.00,Snow,Light Snow,340,2013-03-03 22:51:00
6:01 PM,21.2,17.6,86,29.90,1.0,NNW,12.7,19.6,0.00,Snow,Light Snow,330,2013-03-03 23:01:00
6:18 PM,21.2,17.6,86,29.91,3.0,NW,8.1,-,0.00,Snow,Light Snow,320,2013-03-03 23:18:00
6:37 PM,21.2,17.6,86,29.92,1.5,NW,9.2,-,0.00,Snow,Light Snow,310,2013-03-03 23:37:00
6:51 PM,21.0,17.1,85,30.06,1.5,NW,10.4,18.4,0.00,Snow,Light Snow,320,2013-03-03 23:51:00
6:56 PM,21.2,17.6,86,29.93,2.0,NW,12.7,-,0.00,Snow,Light Snow,320,2013-03-03 23:56:00
7:07 PM,21.2,15.8,80,29.93,4.0,NW,9.2,-,0.00,Snow,Light Snow,310,2013-03-04 00:07:00
7:51 PM,21.0,14.0,74,30.07,10.0,NW,8.1,-,0.00,,Overcast,310,2013-03-04 00:51:00
8:51 PM,21.0,15.1,78,30.08,5.0,NW,5.8,-,0.00,Snow,Light Snow,320,2013-03-04 01:51:00
9:19 PM,19.4,15.8,86,29.95,8.0,NW,5.8,-,0.00,,Overcast,320,2013-03-04 02:19:00
9:27 PM,19.4,15.8,86,29.96,9.0,NW,5.8,-,0.00,,Overcast,310,2013-03-04 02:27:00
9:51 PM,19.9,15.1,81,30.09,10.0,WNW,4.6,-,0.00,,Overcast,300,2013-03-04 02:51:00
10:47 PM,19.4,15.8,86,29.95,3.0,NW,5.8,-,0.00,Snow,Light Snow,320,2013-03-04 03:47:00
10:51 PM,19.9,16.0,85,30.09,3.0,NW,6.9,-,0.00,Snow,Light Snow,310,2013-03-04 03:51:00
11:07 PM,19.4,15.8,86,29.95,9.0,NW,5.8,-,0.00,,Overcast,310,2013-03-04 04:07:00
11:51 PM,19.9,15.1,81,30.08,10.0,NW,10.4,-,0.00,,Overcast,310,2013-03-04 04:51:00